Weather History for Baltimore Martin, MD

Change the Weather History Date:

Sunday, June 23, 2013

  Actual Average Record
Temperature  
Mean Temperature 76 °F -  
Max Temperature 82 °F 81 °F 95 °F (2010)
Min Temperature 71 °F 65 °F 55 °F (2007)
Cooling Degree Days 12    
Growing Degree Days 26 (Base 50)    
Moisture  
Dew Point 70 °F    
Average Humidity 86    
Maximum Humidity 94    
Minimum Humidity 74    
Precipitation  
Precipitation 0.00 in - - ()
Sea Level Pressure  
Sea Level Pressure 30.17 in    
Wind  
Wind Speed 2 mph (SE)    
Max Wind Speed 9 mph    
Max Gust Speed -    
Visibility 10 miles    
Events Rain    
Averages and records for this station are not official NWS values.
T = Trace of Precipitation, MM = Missing Value Source: NWS Daily Summary

Daily Weather History Graph

Daily Weather History Graph

Search for Another Location

Airport:

Trip Planner

Search our weather history database for the weather conditions in past years. The results will help you decide how hot, cold, wet, or windy it might be!

Date:

Astronomy

Jun. 23, 2013 Rise Set
Actual Time 5:39 AM EDT 8:36 PM EDT
Civil Twilight 5:07 AM EDT 9:08 PM EDT
Nautical Twilight 4:26 AM EDT 9:49 PM EDT
Astronomical Twilight 3:39 AM EDT 10:36 PM EDT
Moon 8:46 PM EDT (6/23) 5:54 AM EDT (6/23)
Length of Visible Light 16h 01m
Length of Day
14h 56m
Full, 100% of the Moon is Illuminated
Jun 23
Full
Jun 30
Last Quarter
Jul 8
New
Jul 15
First Quarter
Jul 22
Full

Hourly Weather History & Observations

Time (EDT) Temp. Heat Index Dew Point Humidity Pressure Visibility Wind Dir Wind Speed Gust Speed Precip Events Conditions
12:18 AM 73.4 °F - 68.0 °F 83% 30.20 in 10.0 mi Calm Calm - N/A   Clear
12:39 AM 73.4 °F - 66.2 °F 78% 30.21 in 10.0 mi SSW 3.5 mph - N/A   Clear
12:57 AM 73.4 °F - 66.2 °F 78% 30.21 in 10.0 mi Calm Calm - N/A   Clear
1:18 AM 73.4 °F - 66.2 °F 78% 30.21 in 10.0 mi Calm Calm - N/A   Clear
1:39 AM 73.4 °F - 66.2 °F 78% 30.22 in 10.0 mi Calm Calm - N/A   Clear
2:00 AM 71.6 °F - 68.0 °F 88% 30.21 in 10.0 mi SE 4.6 mph - N/A   Clear
2:18 AM 71.6 °F - 68.0 °F 88% 30.20 in 10.0 mi SSE 6.9 mph - N/A   Clear
2:39 AM 71.6 °F - 68.0 °F 88% 30.19 in 10.0 mi SE 4.6 mph - N/A   Clear
3:00 AM 71.6 °F - 68.0 °F 88% 30.18 in 10.0 mi SSE 5.8 mph - N/A   Clear
3:18 AM 71.6 °F - 68.0 °F 88% 30.18 in 10.0 mi SSE 4.6 mph - N/A   Clear
3:39 AM 71.6 °F - 68.0 °F 88% 30.18 in 10.0 mi SSE 4.6 mph - N/A   Clear
4:00 AM 71.6 °F - 68.0 °F 88% 30.18 in 10.0 mi SSE 4.6 mph - N/A   Clear
4:18 AM 71.6 °F - 68.0 °F 88% 30.18 in 10.0 mi Calm Calm - N/A   Clear
4:39 AM 71.6 °F - 68.0 °F 88% 30.19 in 10.0 mi SSE 3.5 mph - N/A   Clear
5:00 AM 71.6 °F - 68.0 °F 88% 30.19 in 10.0 mi Calm Calm - N/A   Clear
5:18 AM 71.6 °F - 68.0 °F 88% 30.19 in 5.0 mi Calm Calm - N/A   Clear
5:30 AM 71.6 °F - 68.0 °F 88% 30.20 in 10.0 mi Calm Calm - N/A   Clear
5:55 AM 71.6 °F - 69.8 °F 94% 30.20 in 10.0 mi Calm Calm - N/A   Scattered Clouds
6:50 AM 73.4 °F - 69.8 °F 88% 30.20 in 10.0 mi Calm Calm - N/A   Scattered Clouds
7:50 AM 75.2 °F - 71.6 °F 89% 30.21 in 10.0 mi Calm Calm - N/A   Mostly Cloudy
8:50 AM 75.2 °F - 71.6 °F 89% 30.20 in 10.0 mi ESE 5.8 mph - N/A   Mostly Cloudy
9:55 AM 77.0 °F - 71.6 °F 83% 30.20 in 10.0 mi East 4.6 mph - N/A   Mostly Cloudy
10:45 AM 75.2 °F - 71.6 °F 89% 30.21 in 2.0 mi SE 3.5 mph - N/A Rain Light Rain
11:45 AM 75.2 °F - 73.4 °F 94% 30.19 in 10.0 mi Calm Calm - N/A   Overcast
12:45 PM 78.8 °F - 73.4 °F 83% 30.17 in 7.0 mi ESE 3.5 mph - N/A   Mostly Cloudy
1:50 PM 80.6 °F 85.4 °F 73.4 °F 79% 30.15 in 10.0 mi SSE 3.5 mph - N/A   Mostly Cloudy
2:50 PM 82.4 °F 88.2 °F 73.4 °F 74% 30.13 in 10.0 mi SSE 4.6 mph - N/A   Mostly Cloudy
3:45 PM 80.6 °F 85.4 °F 73.4 °F 79% 30.12 in 10.0 mi SE 6.9 mph - N/A   Mostly Cloudy
4:50 PM 82.4 °F 88.2 °F 73.4 °F 74% 30.10 in 10.0 mi SE 6.9 mph - N/A   Scattered Clouds
5:50 PM 80.6 °F 86.2 °F 75.2 °F 84% 30.09 in 10.0 mi SE 9.2 mph - N/A   Scattered Clouds
6:45 PM 80.6 °F 86.2 °F 75.2 °F 84% 30.09 in 10.0 mi SSE 6.9 mph - N/A   Scattered Clouds
8:55 PM 78.8 °F - 75.2 °F 89% 30.10 in 10.0 mi SSE 5.8 mph - N/A   Scattered Clouds
10:21 PM 77.0 °F - 73.4 °F 89% 30.12 in 10.0 mi Calm Calm - N/A   Clear
10:42 PM 77.0 °F - 73.4 °F 89% 30.13 in 10.0 mi Calm Calm - N/A   Clear
11:00 PM 75.2 °F - 73.4 °F 94% 30.13 in 10.0 mi Calm Calm - N/A   Clear
11:21 PM 75.2 °F - 73.4 °F 94% 30.12 in 10.0 mi Calm Calm - N/A   Clear
11:39 PM 77.0 °F - 73.4 °F 89% 30.12 in 10.0 mi Calm Calm - N/A   Clear